    Observer details:
    204 Schiaparelli Observatory.  Observer L. Buzzi.  0.84-m f/3.5 reflector +
        CCD.
    587 Sormano.  Observers A. Fumagalli, C. Pozzi, A. Testa, G. Ventre.
        Measurer A. Testa.  0.5-m f/6.8 reflector + CCD.
    595 Farra dIsonzo.  Observers E. Pettarin, F. Piani.  0.40-m f/5.15
        reflector + CCD.
    C47 Nonndorf.  Observer G. Dangl.  0.25-m f/4.8 reflector + CCD.
    C95 SATINO Remote Observatory, Haute Provence.  Observer J. Jahn.  0.60-m
        f/3.2 Newtonian reflector + CCD.
    J95 Great Shefford.  Observer P. Birtwhistle.  0.41-m f/6.3
        Schmidt-Cassegrain + CCD.
    K38 M57 Observatory, Saltrio.  Observer G. Baj.  0.3-m f/5.5 Ritchey-Chretien
        + CCD.
    K63 G. Pascoli Observatory, Castelvecchio Pascoli.  Observer R. Bacci.
        0.41-m f/3.2 Newtonian reflector + CCD.
    K80 Platanus Observatory, Lusowko.  Observer T. Kluwak.  0.28-m f/2.2 Schmidt
        + CCD.
    K87 Dettelbach Vineyard Observatory.  Observer B. Haeusler.  0.30-m
        Schmidt-Cassegrain + CCD.
    K88 GINOP-KHK, Piszkesteto.  Observers M. Krezinger, L. Kriskovics,
        R. Koenyves-Toth.  Measurer K. Sarneczky.  0.60-m Schmidt + CCD.
    L01 Visnjan Observatory, Tican.  Observer K. Korlevic.  1.0-m f/2.9 reflector
        + CCD.
    L11 Sandvreten Observatory.  Observers L. Hermansson, M. Johansson.  Measurer
        L. Hermansson.  0.41-m f/9.0 Ritchey-Chretien + CCD.
    T08 ATLAS-MLO, Mauna Loa.  Observers L. Denneau, J. Tonry, A. Heinze,
        H. Weiland, H. Flewelling.  Measurers L. Denneau, J. Tonry, A. Heinze,
        H. Weiland, H. Flewelling, B. Stalder, A. Fitzsimmons, D. Young,
        N. Erasmus.  0.5-m reflector + CCD.
    V01 .  Observer B. Sheets.  0.35-m Schmidt-Cassegrain + CCD.
    Z80 Northolt Branch Observatory.  Observer G. Wells.  Measurers G. Wells,
        D. Bamberger.  0.25-m f/8.0 Ritchey-Chretien + CCD.
    Z99 Clixby Observatory, Cleethorpes.  Observer A. Mickleburgh.  0.36-m f/8
        Schmidt-Cassegrain + CCD.
    
    Orbital elements:
    2019 DA                                                  Earth MOID = 0.0152 AU
    Epoch 2019 Apr. 27.0 TT = JDT 2458600.5                 MPC
    M 181.24495              (2000.0)            P               Q
    n   1.10161246     Peri.  248.92226     +0.92091355     -0.37461520
    a   0.9285034      Node   132.90174     +0.38928572     +0.87030582
    e   0.2002783      Incl.    8.44817     +0.01936154     +0.31973618
    P   0.89           H   23.3           G   0.15           U   7
    Residuals in seconds of arc
    190216 T08  0.1+  0.3+    190216 L11  0.0   0.1-    190217 587  0.1+  0.0
    190216 T08  0.3-  0.5-    190216 L11  0.4+  0.5+    190217 587  0.2+  0.1+
    190216 T08  0.7+  0.3-    190216 L11  0.6-  0.3-    190217 587  0.3+  0.3+
    190216 T08  0.9+  0.8+    190216 L11  0.2-  0.6+    190217 K38  0.6+  0.5+
    190216 C95  0.5-  0.2-    190216 L11  0.1-  0.0     190217 K38  0.2+  0.5-
    190216 C95 (0.7+  2.1-)   190216 L11  0.9-  0.2-    190217 K38  0.0   0.0
    190216 C95  0.1-  0.6-    190216 L11  0.3+  0.4+    190217 K38  0.0   0.1-
    190216 C95 (0.4-  2.7-)   190216 L11  0.0   0.3+    190217 C47  0.2+  0.3-
    190216 K80  0.3-  0.2+    190216 L11  0.0   0.2+    190217 C47  0.3+  0.3-
    190216 C95  0.1+  0.6+    190216 L11  0.2+  0.2+    190217 C47  0.3+  0.2-
    190216 K80  0.3-  0.1-    190216 L11  0.0   0.1-    190217 C47  0.1+  0.2-
    190216 K80  0.2-  0.0     190216 L11  0.2+  0.1-    190217 K38  0.0   0.2+
    190216 L01  0.0   0.1-    190216 L11  0.6-  0.0     190217 K80  0.2+  0.2-
    190216 L01  0.1-  0.1-    190216 L11  0.0   0.3+    190217 K80  0.2+  0.0
    190216 L01  0.1-  0.1-    190216 L11  0.3-  0.2-    190217 K87  0.1+  0.1-
    190216 L01  0.1-  0.1-    190216 204  0.0   0.2-    190217 K80  0.7-  0.3+
    190216 L01  0.1-  0.1-    190216 204  0.0   0.4-    190217 K87  0.2+  0.1+
    190216 L01  0.1-  0.1-    190216 204  0.1-  0.3-    190217 K87  0.4-  0.2-
    190216 L01  0.0   0.2-    190216 204  0.1+  0.0     190217 K87  0.4-  0.1+
    190216 L11  0.3+  0.6+    190216 204  0.1+  0.1+    190217 K88  0.1+  0.1+
    190216 L11  0.1+  0.0     190216 K88  0.1-  0.5+    190217 K88  0.3+  0.3+
    190216 L11  0.4+  0.7-    190216 K88  0.2-  0.3+    190217 K88  0.4-  0.5+
    190216 L11  1.0-  0.1-    190216 K88  0.2-  0.3+    190217 Z99 (1.6+  0.3-)
    190216 L11  0.0   0.2+    190217 K80  0.3-  0.1+    190217 Z99  0.5+  0.2-
    190216 L11  0.0   0.5-    190217 Z80  0.4+  0.9-    190217 Z99  0.3-  1.3-
    190216 L11  0.6-  0.2-    190217 Z80  0.1+  0.2+    190218 K80  0.1+  0.1-
    190216 L11  0.0   0.4+    190217 K63  0.2+  0.5-    190218 K80  0.0   0.0
    190216 595  0.9+  0.5+    190217 K63  0.9+  0.7+    190218 K80  0.0   0.1-
    190216 595  0.1+  0.3-    190217 K63  0.0   0.0     190218 J95  0.2-  0.0
    190216 L11  0.1+  0.2-    190217 Z80  0.9-  0.3+    190218 J95  0.2+  0.1+
    190216 595  0.1-  0.0     190217 V01  0.0   0.0     190218 J95  0.0   0.2+
    190216 L11  0.2-  0.4-    190217 V01  0.0   0.0     190218 J95  0.1-  0.2-
    190216 L11  0.6+  0.1-    190217 V01  0.3-  0.3+
    
    Ephemeris:
    2019 DA                  a,e,i = 0.93, 0.20, 8                   q = 0.7425
    Date    TT    R. A. (2000) Decl.     Delta      r     Elong.  Phase     V
    2019 01 20    20 31 40.2 -44 35 41   0.07650 0.9151    24.9   153.1    26.6
    ...
    2019 02 04    19 36 26.2 -06 42 25   0.02008 0.9675    24.5   155.0    24.3
    ...
    2019 02 12    15 34 12.2 +73 41 42   0.02571 0.9935   103.8    74.8    17.9
    ...
    2019 02 18    11 00 17.9 +72 18 37   0.04684 1.0117   119.0    58.7    18.8
    2019 02 19    10 44 19.3 +71 16 26   0.05059 1.0146   120.0    57.5    18.9
    2019 02 20    10 31 53.0 +70 18 03   0.05438 1.0175   120.8    56.6    19.1
    ...
    2019 02 26    09 53 24.3 +65 43 19   0.07753 1.0340   122.8    53.5    19.8
    ...
    2019 03 06    09 36 53.7 +61 32 09   0.1091  1.0539   122.1    52.9    20.5
    ...
    2019 03 21    09 35 50.4 +55 33 45   0.1692  1.0840   117.3    54.7    21.6
    
    A. U. Tomatic                (C) Copyright 2019 MPC           M.P.E.C. 2019-D11
    

    Read MPEC 2019-D10 Read MPEC 2019-D12


    MPEC number:

    Enter an MPEC number in one of the following forms:

    • 1997-B01 (the full form)
    • J97B01 (the packed version of the full form)
    • B01 (the abbreviated form)